Volver al catálogo

STARLINK-35059

ActivoComunicacionesSSO
NORAD 65454·PAYLOAD·🇺🇸 United States

Lanzado Sep 3, 2025 desde Vandenberg Space Force Base

Loading…

Próximos Pases (próximas 24 horas)

TLE

ActualizadoSource: CelesTrak SupGP

Época: Sep 15, 2026, 02:45 UTC

1 65454C 25194W   26258.11506944  .00968280  00000+0  57089-1 0  2588
2 65454  97.2854 107.9608 0001688  91.2168 166.1149 15.11172069    14

Sigue STARLINK-35059 en tiempo real con AllMySat

Download on the App Store